Wind_Speed
33 38 43 47 50 52 53 52 51 50 51 51 49 49 49 49 49 47 45 43 41 40 39 38 38 37 37 38 37 37 36 36 35 35 34 35 35 34 34 34 32 32 32 32 31 32 32 32 32 32 31 29 28 25 23 22 21 23 26 27 30 32 34 36 38 40 41 42 43 43 44 45 45 46 46 47 48 48 49 50 51 52 52 53 54 54
30 34 39 44 46 48 50 50 50 49 48 48 47 48 48 47 47 46 45 43 41 40 39 37 37 36 36 36 35 35 35 34 34 33 33 32 32 32 32 32 31 32 32 32 33 32 31 32 32 32 30 28 27 24 24 25 28 31 33 35 36 37 39 40 42 43 43 44 44 45 45 46 46 47 48 49 50 51 51 52 53 54 54 55 55 56
28 30 33 38 41 43 46 48 48 47 45 46 47 47 47 46 45 44 44 42 40 39 38 37 36 36 35 34 34 33 33 33 33 32 31 30 30 30 29 29 30 30 31 32 32 31 30 30 30 30 30 29 29 29 31 34 36 38 39 39 39 40 41 41 42 43 43 44 44 45 46 46 47 48 49 50 51 52 53 53 54 55 55 55 56 56
27 30 32 35 36 39 44 45 46 46 44 44 44 45 45 44 43 43 43 42 40 39 38 36 35 35 34 34 34 33 32 31 31 30 29 29 29 28 28 27 28 28 29 29 29 28 28 28 28 28 28 29 31 34 37 38 38 39 40 41 41 41 41 41 42 42 43 44 45 46 46 47 48 49 50 51 52 53 54 54 54 55 55 55 55 55
27 30 34 37 35 34 40 43 44 45 45 44 43 42 42 41 41 40 40 40 40 39 38 37 35 35 35 34 34 32 31 30 29 29 28 27 27 26 26 26 26 26 26 26 26 26 27 28 28 29 30 31 33 35 36 37 38 39 40 41 41 41 41 41 42 43 44 45 46 47 48 49 50 51 52 52 53 54 54 54 53 53 52 52 52 51
29 32 36 40 36 32 37 41 41 41 42 43 42 41 39 38 38 38 38 37 37 38 38 37 36 36 35 34 33 32 31 30 29 28 27 26 26 24 24 24 25 25 24 25 25 26 27 28 29 31 32 33 34 35 36 38 39 39 40 40 40 41 41 42 43 44 45 46 47 48 49 50 51 51 52 53 53 53 52 51 50 49 49 48 48 49
33 34 36 39 36 32 36 38 37 36 38 40 40 39 38 36 35 35 36 36 35 35 36 35 35 35 34 33 32 30 30 29 29 28 26 25 24 23 23 24 24 23 23 24 25 26 27 29 30 31 33 34 35 36 37 38 38 39 39 39 40 41 42 43 44 45 46 47 49 50 50 51 52 52 52 51 51 50 49 47 46 46 45 45 46 47
36 35 36 38 34 31 36 38 34 30 33 37 38 38 37 34 33 33 33 34 33 33 33 34 33 33 32 31 31 30 29 28 27 25 24 24 23 23 24 24 23 23 24 25 26 27 28 29 30 31 33 33 34 34 35 36 36 37 38 39 41 42 43 44 45 46 48 49 50 50 50 50 50 49 48 47 46 45 44 43 43 43 44 45 45 46
41 38 36 34 30 32 38 40 32 25 29 35 37 36 35 32 30 31 31 32 32 32 33 32 31 31 30 29 28 27 27 25 25 25 25 25 25 25 25 25 24 24 25 26 27 27 28 29 30 31 32 32 32 33 35 36 38 39 40 41 41 42 43 44 45 46 47 48 48 47 47 46 45 44 43 42 41 41 41 41 42 43 44 45 46 47
43 38 36 31 31 37 42 39 30 25 28 33 34 34 32 29 27 30 31 31 31 31 32 30 29 29 29 27 25 25 25 24 25 26 26 26 26 26 25 25 25 25 26 27 28 29 29 30 31 31 32 33 34 36 37 38 39 39 40 40 41 42 43 44 44 45 45 44 43 42 41 40 39 39 39 39 39 40 40 41 42 43 44 45 46 46
40 37 35 32 36 40 41 37 32 30 30 30 33 33 32 30 28 30 31 30 30 30 30 29 29 29 27 26 26 25 25 25 25 24 24 24 24 25 25 24 24 25 26 27 28 29 30 31 32 33 34 36 37 38 38 38 38 39 40 40 41 42 42 42 41 40 39 38 37 36 36 36 37 37 38 39 39 40 40 41 41 42 44 45 46 47
38 36 33 33 39 41 39 37 35 35 33 30 31 32 31 30 29 29 30 30 30 29 28 28 27 27 26 25 25 24 23 23 22 22 22 22 23 23 23 23 24 25 26 27 28 29 30 32 33 33 34 35 36 36 37 37 38 39 39 40 39 39 37 36 35 34 33 33 33 34 35 36 36 37 37 38 38 39 40 41 42 44 45 47 48 50
37 35 33 35 39 39 37 36 35 36 35 32 30 30 29 28 28 28 28 28 27 25 25 24 23 23 23 23 22 21 22 21 21 21 22 22 22 23 24 25 26 27 28 28 29 29 30 31 32 32 33 34 34 35 36 36 37 37 36 35 34 32 30 29 30 30 31 32 32 33 34 34 35 36 37 38 39 40 42 43 44 46 48 49 51 52
39 36 34 35 36 36 35 33 35 36 36 33 28 26 23 22 23 23 23 23 23 21 21 21 21 20 20 21 20 20 20 21 21 21 22 22 23 24 25 26 27 28 28 28 28 29 30 30 30 31 32 32 33 33 34 33 32 31 29 28 27 27 26 27 28 29 30 32 32 32 33 34 35 36 38 40 41 43 44 46 48 50 52 53 54 56
42 39 36 36 37 37 35 32 32 32 31 29 25 24 21 17 17 18 18 18 18 17 17 17 18 17 17 17 18 19 19 20 20 20 21 22 23 23 24 25 26 26 26 26 26 27 27 27 28 29 29 29 29 29 28 26 25 24 23 23 24 25 26 27 27 28 29 30 31 32 34 35 37 39 41 42 44 46 47 49 51 53 55 56 57 59
44 43 40 39 39 39 36 32 31 30 29 26 24 24 22 18 17 16 15 15 15 15 15 15 15 15 16 16 16 17 18 18 18 19 19 20 20 21 22 22 23 23 23 23 23 24 24 24 24 25 24 23 22 21 21 20 20 21 21 22 23 25 26 27 27 28 30 31 33 35 36 38 40 42 44 45 47 49 50 52 54 56 58 59 60 62
46 47 44 42 41 39 36 33 30 30 29 26 24 23 22 20 19 18 17 16 17 16 15 15 14 14 14 14 14 15 15 15 15 16 16 16 17 17 18 19 19 19 19 19 19 19 19 19 18 18 17 17 17 17 18 18 18 19 21 22 23 25 26 28 29 30 32 34 35 37 39 41 43 45 46 48 49 51 53 54 57 59 60 62 63 65
43 46 45 42 41 39 36 35 32 30 29 27 25 23 22 21 19 18 17 16 15 15 13 12 11 11 11 11 11 12 12 13 13 13 14 14 14 14 14 14 14 13 13 13 12 12 13 13 13 13 14 14 15 16 16 17 18 19 21 22 24 26 28 30 32 33 34 36 38 39 42 44 46 47 49 50 52 54 55 57 59 61 63 65 66 67
37 41 42 39 38 36 34 33 31 29 27 25 24 21 19 18 15 14 13 12 12 10 9 9 8 8 8 8 8 8 9 9 10 10 10 9 8 7 6 6 5 5 6 7 8 8 9 10 11 12 13 14 14 15 17 19 20 21 23 25 26 28 30 32 34 36 37 39 40 42 44 46 48 50 52 54 55 57 58 60 62 64 65 67 69 70
33 36 38 36 33 32 30 28 26 24 22 21 20 18 16 15 13 13 13 12 12 11 10 10 10 10 10 9 9 8 8 7 5 4 3 3 3 2 1 0 1 3 4 6 7 8 9 10 11 11 13 14 16 17 19 21 23 25 26 28 29 31 33 35 37 38 40 42 44 46 47 50 52 54 55 57 58 60 61 62 64 66 68 70 72 73
37 37 39 38 35 33 31 29 27 25 24 23 22 21 20 19 18 18 18 18 17 17 16 16 16 16 15 15 14 13 12 11 10 9 8 7 5 4 2 1 2 3 5 6 7 8 9 10 12 13 15 17 18 20 22 24 26 28 29 31 32 34 36 38 39 41 43 45 47 49 50 52 54 56 58 59 61 63 64 66 67 69 71 72 74 76
43 42 42 42 40 39 37 36 34 32 31 30 29 28 27 26 25 24 24 22 21 21 19 19 19 18 17 16 15 14 13 11 10 8 7 5 4 2 0 1 2 4 5 7 8 10 11 13 15 16 18 20 21 23 25 27 28 30 32 34 35 37 39 41 42 44 46 47 49 50 52 54 56 58 60 62 64 65 67 69 70 72 73 75 77 79
42 42 42 42 41 40 39 37 36 35 34 33 32 30 29 28 26 25 24 23 21 20 19 18 18 17 16 14 12 11 10 9 8 7 5 4 4 4 4 5 6 7 8 9 11 13 14 16 17 19 20 22 24 26 27 29 31 33 35 36 38 39 41 43 44 46 48 49 51 53 55 57 59 61 63 64 66 67 69 71 72 74 76 78 80 82
38 38 37 37 37 36 35 34 33 32 31 30 29 27 26 25 24 22 21 20 19 18 17 16 15 15 13 12 11 10 10 9 8 7 7 7 7 7 8 8 9 10 11 12 13 15 16 18 19 21 22 24 26 28 29 31 33 34 36 38 39 41 42 44 46 48 50 52 54 56 58 60 62 63 65 67 68 70 72 74 76 78 80 82 84 86
36 35 33 32 33 33 32 31 29 28 28 26 25 25 24 23 22 20 20 19 18 18 17 16 15 14 14 13 12 12 11 10 9 9 9 8 8 8 8 8 9 11 12 14 15 16 18 19 21 23 24 26 28 29 31 32 34 36 38 40 42 43 45 47 49 51 54 55 57 59 61 63 65 66 68 70 72 74 76 78 79 81 83 85 88 90
34 33 32 31 31 31 30 29 28 27 27 26 25 24 23 23 22 21 20 19 18 18 17 16 15 15 14 13 12 11 11 10 9 8 7 7 7 7 7 8 10 11 13 15 16 18 20 21 23 24 26 27 29 30 32 34 36 38 40 42 45 46 49 51 53 55 57 59 61 63 64 66 68 70 71 73 75 77 79 80 82 84 86 88 90 91
32 31 31 30 29 29 29 28 27 27 26 25 24 24 23 22 21 20 19 18 17 16 16 14 13 13 12 11 10 8 8 7 6 6 6 6 6 7 8 9 11 13 14 16 18 19 21 23 24 26 27 29 30 32 34 36 38 41 43 45 48 50 52 54 56 58 60 62 64 66 67 69 71 72 74 76 77 79 81 82 84 85 87 88 89 90
29 29 28 28 27 27 26 26 25 24 24 23 22 21 20 19 18 17 16 15 14 14 13 12 11 10 9 8 7 6 5 4 4 4 5 5 6 8 9 11 12 14 15 17 19 20 22 25 26 28 30 31 33 35 37 39 41 44 46 48 51 53 55 57 59 61 63 65 66 68 70 71 73 74 75 76 78 79 80 82 83 84 86 87 88 89
26 26 25 25 24 24 23 22 22 21 21 20 19 18 17 16 15 14 13 12 11 10 9 8 7 6 5 4 3 3 3 3 4 4 6 7 8 9 11 12 14 16 17 19 21 22 24 26 28 30 32 34 36 38 40 42 44 47 49 51 54 56 58 60 61 63 65 66 68 69 70 71 72 73 74 76 77 78 79 80 82 83 84 85 87 88
23 23 22 21 21 20 20 19 18 18 17 16 16 15 14 13 12 11 10 9 8 7 7 6 5 4 3 3 4 4 5 5 5 6 8 9 11 12 13 15 16 18 19 21 23 25 27 29 30 32 34 36 38 41 43 45 47 50 52 54 56 58 59 61 62 64 65 67 68 69 70 71 72 73 75 76 77 78 79 80 81 83 84 86 87 88
19 19 18 18 17 17 16 16 15 14 13 13 12 11 11 10 9 8 8 6 5 5 4 3 3 3 4 5 6 7 8 9 8 8 10 12 13 15 16 17 18 20 22 24 26 28 29 31 33 35 37 39 41 44 45 47 49 51 53 55 57 59 61 62 63 65 66 68 69 70 71 71 72 74 75 76 76 78 79 81 82 84 86 88 88 89
15 15 14 14 13 13 13 12 11 11 10 9 9 8 7 7 6 6 5 4 3 2 2 2 3 4 6 7 8 9 10 11 9 10 12 13 14 15 17 18 20 22 24 26 27 29 31 33 35 37 39 41 43 45 47 49 51 53 55 57 58 60 61 63 64 66 67 69 70 70 70 71 72 74 74 75 77 78 81 83 84 86 88 89 90 90
12 11 11 10 10 9 9 8 7 7 6 6 5 4 4 4 4 3 3 2 2 2 2 3 4 5 7 8 9 10 11 11 11 11 13 15 16 17 19 20 22 24 26 27 29 31 33 35 37 39 41 43 45 47 49 50 52 53 55 57 58 60 62 63 65 67 68 69 70 70 70 71 72 73 74 76 78 80 83 85 87 88 89 90 91 91
10 9 8 8 7 6 6 5 4 3 3 3 3 3 3 4 4 4 5 5 4 4 4 4 5 6 8 10 11 12 13 14 13 13 15 17 19 20 22 23 25 26 28 29 31 33 34 36 39 42 44 46 47 48 50 51 53 54 56 57 59 61 63 65 67 68 69 70 70 70 70 71 72 74 76 78 80 83 85 87 88 89 90 91 91 91
8 7 7 6 5 5 5 4 3 3 4 4 5 6 7 7 6 6 6 7 8 7 7 7 7 8 9 11 13 15 17 19 19 18 19 21 21 23 25 26 27 29 30 31 33 34 37 39 42 44 47 48 49 50 51 53 54 56 58 59 61 63 65 67 69 70 70 70 70 70 70 71 73 75 78 80 83 85 86 88 89 90 90 91 90 90
8 7 6 6 5 5 5 5 5 6 6 6 6 7 8 9 9 9 8 9 10 10 10 10 10 11 12 13 15 17 19 22 24 24 24 25 25 26 28 29 31 32 33 34 35 37 40 42 44 46 48 49 51 52 53 55 57 58 60 62 63 65 67 69 71 71 71 70 70 70 70 72 74 77 80 83 85 87 88 89 89 90 90 89 88 88
7 7 7 7 7 7 8 7 7 7 8 8 8 8 9 10 11 12 12 12 13 14 14 14 14 15 15 16 18 19 21 24 28 29 28 29 29 30 31 32 33 34 36 37 38 40 42 44 46 48 49 51 52 53 55 57 58 60 62 64 66 68 70 71 72 72 71 70 70 70 71 74 78 81 83 85 87 88 88 89 89 89 88 87 87 86
7 7 7 7 8 9 10 10 9 9 9 10 10 10 11 12 13 13 15 15 16 17 17 18 18 18 19 20 21 22 22 24 28 31 32 32 33 33 33 34 35 36 38 39 40 42 44 46 48 50 51 53 54 56 57 59 60 63 64 66 68 70 71 73 73 72 70 70 70 71 74 78 81 84 86 87 88 88 88 88 88 87 86 86 85 85
10 9 9 9 9 10 11 12 12 12 11 11 10 11 12 14 15 15 15 16 17 18 18 19 20 21 22 23 24 25 26 25 27 31 32 33 34 34 34 35 36 38 40 41 43 44 46 48 50 52 54 56 58 59 60 61 63 65 66 68 70 72 73 73 72 71 70 70 71 74 78 81 84 86 87 88 88 88 87 87 86 85 84 84 84 85
13 13 12 12 12 12 13 13 14 14 13 12 12 11 11 14 15 15 16 17 18 19 19 21 22 23 24 25 26 28 29 29 29 31 33 34 35 36 36 36 38 40 42 44 45 47 49 51 53 55 58 60 61 61 62 63 64 66 68 70 72 73 73 72 71 71 71 72 74 78 81 84 86 87 88 88 88 87 86 85 84 83 82 83 84 84
15 16 16 16 16 16 16 15 15 16 15 15 15 14 13 15 16 17 18 19 20 20 22 23 24 25 26 27 28 29 32 33 33 34 35 36 37 38 39 40 41 43 45 46 48 49 51 53 55 57 59 61 61 62 62 64 66 68 70 71 72 72 71 71 70 71 72 74 78 81 84 86 87 88 87 87 86 85 84 83 82 82 82 83 83 84
19 19 18 18 19 19 19 18 16 15 16 17 18 19 18 19 19 20 21 22 22 23 24 25 27 29 30 31 32 32 34 36 37 37 38 39 40 41 42 43 45 47 48 49 50 51 52 54 56 58 59 61 62 62 64 66 67 69 71 72 72 71 70 70 71 72 74 78 81 84 85 87 87 87 86 85 84 82 81 81 81 82 83 83 83 85
23 23 22 21 20 20 21 20 18 16 17 17 19 21 22 22 22 23 24 25 26 27 27 28 30 33 35 35 35 36 37 38 39 40 40 40 42 44 45 46 47 49 49 50 50 51 52 54 56 58 60 62 63 64 65 67 69 71 72 71 70 70 70 70 72 74 78 81 83 85 86 86 86 85 84 83 81 80 79 80 81 82 83 84 85 88
26 27 27 26 23 22 22 21 19 18 18 18 18 20 21 21 22 23 24 26 28 29 30 31 34 37 38 38 38 38 39 40 41 40 39 40 42 45 46 47 48 49 49 49 50 51 53 55 57 60 63 64 65 66 67 69 70 71 70 70 69 69 70 72 74 77 80 82 84 85 85 84 83 82 81 80 79 78 79 80 80 81 83 85 88 90
29 30 31 30 28 26 25 23 20 20 20 20 20 21 22 22 23 23 25 26 28 31 32 34 36 38 39 39 39 39 40 41 41 39 39 40 43 45 47 48 48 48 49 50 51 53 55 58 60 62 64 66 67 68 69 70 70 69 69 69 69 70 72 74 77 79 81 83 84 84 83 82 80 79 78 77 77 78 79 79 80 81 84 88 90 92
31 32 34 33 31 30 29 26 24 23 23 24 24 24 25 25 26 26 26 27 29 31 33 33 34 35 37 38 38 38 38 39 39 39 40 42 45 47 48 48 48 49 50 51 53 55 58 60 62 64 66 67 68 69 70 69 68 67 67 68 69 71 73 76 78 81 82 83 83 81 80 79 77 76 76 76 76 78 78 80 81 83 86 90 92 92
33 34 35 35 34 33 31 29 27 27 27 27 28 28 28 28 29 29 29 30 31 32 33 34 35 36 38 39 39 39 38 38 39 39 41 43 45 46 47 47 48 50 51 53 55 58 60 62 64 65 66 68 69 69 68 67 66 66 68 69 70 73 75 78 80 81 81 81 80 79 77 76 75 74 74 74 75 77 78 81 84 86 88 91 92 93
35 36 38 37 36 36 34 31 28 28 29 30 31 31 32 32 33 34 34 35 36 36 36 38 39 41 42 43 43 42 40 40 40 40 40 41 43 44 45 47 48 51 53 55 57 60 62 64 65 66 67 68 68 67 65 64 65 67 69 70 72 75 78 79 80 80 79 79 78 76 75 74 73 73 73 73 75 76 78 82 86 88 90 91 92 94
36 38 39 39 39 39 37 34 31 30 31 34 35 34 34 35 35 36 38 39 39 39 40 41 43 45 46 46 46 45 44 42 42 41 39 40 42 44 45 47 50 52 55 57 59 61 63 64 65 66 67 66 65 63 63 65 67 68 70 72 75 77 78 78 78 78 78 77 76 75 74 73 72 71 71 72 74 77 80 84 86 89 90 90 91 93
37 40 41 41 41 41 39 36 34 32 33 36 39 39 38 39 39 39 41 42 42 42 43 44 45 46 47 47 47 46 45 43 42 42 41 41 44 46 47 49 52 55 57 59 60 62 63 64 65 66 65 63 61 62 64 66 68 69 71 74 76 76 76 76 76 76 76 75 75 74 72 71 70 70 70 72 74 78 81 84 86 89 90 89 91 89
38 40 42 43 43 43 41 37 35 34 34 37 41 42 43 43 43 43 44 45 45 45 46 47 47 46 46 46 45 45 44 43 43 42 43 44 46 48 50 52 54 56 58 59 61 62 63 64 64 63 61 60 60 63 65 67 68 70 73 74 74 74 74 75 75 75 74 74 73 72 70 68 68 68 70 73 76 78 81 82 84 87 88 89 89 80
Wind_Direction
198 199 200 202 204 206 207 207 207 207 208 210 212 214 215 216 216 214 214 215 215 215 215 217 219 220 222 224 226 228 230 233 236 239 241 244 247 250 253 255 257 258 260 261 262 262 264 265 267 269 270 271 271 269 265 266 273 279 282 284 285 286 287 289 290 291 292 293 294 294 294 294 294 294 294 294 293 293 292 292 292 291 291 290 290 289
190 192 195 197 198 201 204 205 205 205 206 206 208 211 213 215 216 216 215 215 215 216 216 216 218 220 222 225 227 229 230 232 236 238 241 244 247 250 253 256 258 259 260 262 263 264 265 267 269 269 268 268 265 261 263 272 280 284 287 288 288 289 290 291 292 292 292 292 292 293 293 293 293 293 293 293 292 292 292 292 292 291 291 291 290 290
181 182 185 189 190 193 197 200 202 202 203 204 205 208 211 212 213 215 216 216 216 216 217 218 218 220 222 225 227 229 231 233 236 239 242 245 249 252 255 258 260 261 262 263 265 267 269 270 269 267 266 266 263 264 273 282 286 287 289 290 290 290 290 290 290 290 290 291 291 292 292 292 292 292 292 292 292 292 292 292 292 292 291 291 291 291
169 169 171 174 177 185 190 193 197 198 198 201 203 205 208 210 212 213 214 215 216 216 217 218 219 221 222 225 227 230 232 235 238 241 244 247 250 253 255 257 258 260 262 264 266 266 267 267 269 270 271 271 270 273 280 285 287 288 289 290 290 290 289 289 289 289 289 290 291 292 292 292 292 292 293 293 293 293 293 293 293 293 293 293 292 292
156 156 159 160 163 177 183 185 191 194 194 195 198 201 204 207 210 212 214 215 216 216 217 217 219 221 224 226 229 231 234 237 240 243 245 247 249 250 252 254 256 258 261 262 262 261 263 266 271 275 276 277 278 280 282 285 286 287 287 288 288 287 287 288 288 288 289 290 291 292 292 293 293 294 294 294 294 295 295 295 295 295 294 294 293 293
143 145 151 153 156 169 175 176 183 188 191 193 194 195 198 203 207 210 211 214 216 217 218 218 220 222 224 227 230 232 235 237 239 241 243 245 246 248 250 252 254 255 256 258 260 263 267 271 275 277 279 280 282 283 285 286 286 286 286 285 285 285 285 286 287 289 290 291 292 292 293 293 294 294 295 295 296 296 296 296 296 296 296 295 295 294
133 137 145 148 150 162 166 166 172 179 186 190 191 191 192 196 202 206 209 211 214 218 219 220 222 224 225 227 229 231 233 236 237 239 242 244 247 248 249 251 252 254 257 260 264 267 270 274 276 278 279 281 282 282 283 284 284 285 284 284 285 285 286 287 289 290 290 291 292 293 293 294 295 295 295 296 296 296 296 297 297 297 297 297 296 296
125 129 137 141 144 153 155 154 158 169 180 185 187 189 188 190 196 201 206 208 210 215 219 220 222 225 226 226 228 229 231 234 236 238 241 243 244 246 247 250 253 257 260 262 265 268 272 275 277 278 278 278 278 279 280 281 282 283 283 284 285 286 287 288 289 290 291 292 293 294 294 295 295 296 296 296 296 297 297 298 298 298 298 298 298 298
116 119 125 132 139 146 146 144 146 161 176 180 183 185 183 183 190 194 199 205 207 210 215 217 220 224 226 226 227 229 231 233 235 235 236 238 241 244 248 251 254 257 260 264 268 271 274 275 276 276 275 275 275 277 279 281 282 283 283 284 286 287 289 290 291 292 293 294 294 295 296 296 296 296 297 298 298 299 299 299 299 300 300 300 300 300
110 113 116 125 137 142 139 136 141 159 172 175 177 178 175 175 184 191 194 199 203 207 211 212 215 221 225 225 226 228 229 230 232 233 235 239 243 247 250 254 257 261 265 268 270 271 272 273 273 273 272 272 275 278 280 282 283 284 286 288 290 291 292 293 293 294 295 296 296 296 297 297 298 299 300 300 300 301 301 301 302 303 303 303 303 303
109 110 114 126 135 137 137 138 149 162 164 167 172 173 172 174 182 190 193 196 201 205 209 210 213 217 220 222 223 225 227 229 233 236 239 243 246 250 253 257 261 264 266 267 268 269 269 269 269 269 271 273 277 280 282 284 287 289 290 291 292 293 294 295 296 296 297 297 298 300 301 301 302 302 302 303 303 303 304 304 305 306 306 305 305 305
111 111 118 132 136 139 143 147 154 159 156 160 170 173 177 179 183 188 192 197 200 203 206 208 212 215 217 220 223 226 229 232 236 239 241 244 247 251 254 256 259 260 262 263 264 265 266 268 270 272 275 277 280 283 286 288 289 291 292 293 294 295 296 297 298 299 300 301 303 304 304 304 304 304 304 304 305 305 306 307 307 307 306 306 306 306
116 121 130 137 139 143 147 148 153 155 152 157 168 174 178 182 183 186 191 195 198 200 203 206 211 215 218 221 225 228 231 234 236 239 242 245 247 249 250 252 254 256 259 261 264 267 269 271 274 276 279 281 284 287 288 290 291 293 294 296 297 298 299 300 302 303 304 305 305 305 304 304 305 306 306 307 307 307 307 307 307 307 306 306 307 307
113 120 128 133 137 139 140 144 151 154 153 154 163 167 170 180 184 186 190 192 196 198 200 205 210 213 217 220 224 228 231 233 236 239 242 244 245 247 249 251 254 258 261 265 268 270 272 274 277 280 283 286 288 289 290 292 293 295 297 299 300 301 302 304 305 306 306 305 306 306 306 307 308 308 308 308 308 308 308 308 308 308 307 307 307 307
107 113 119 125 129 128 129 137 143 144 143 143 149 150 149 162 172 177 183 186 189 192 195 201 206 208 210 213 218 222 225 229 232 235 239 241 245 247 251 254 257 261 264 267 270 273 275 278 281 284 286 288 289 290 292 295 297 299 300 302 303 304 306 307 307 306 306 306 308 309 309 310 309 309 309 309 309 309 309 309 309 308 307 307 306 306
104 108 111 115 117 117 120 126 127 127 129 133 142 143 141 147 150 154 164 168 169 172 177 185 190 195 200 203 208 213 217 223 228 232 236 240 244 248 251 255 259 263 266 270 274 277 281 283 285 287 288 290 292 294 296 298 300 301 303 305 306 307 307 309 309 308 308 309 310 311 311 311 310 309 309 309 309 308 308 309 308 306 306 305 304 304
99 102 105 106 108 110 114 117 117 119 123 128 133 133 131 135 138 139 143 148 151 153 159 166 169 176 186 191 197 203 209 216 222 228 234 239 244 248 253 257 261 265 270 275 279 283 286 288 289 290 292 294 296 297 298 300 303 305 306 308 308 308 309 310 311 311 311 311 312 312 311 310 309 308 307 307 307 307 307 307 306 304 304 303 303 303
91 95 98 99 101 103 105 107 107 109 113 117 119 119 120 124 127 131 134 139 145 149 154 161 166 175 185 193 200 207 213 219 225 231 236 241 245 250 255 259 266 273 278 284 288 290 290 290 291 293 294 296 298 301 304 307 310 309 309 309 310 310 311 312 312 312 312 311 311 310 309 308 307 306 306 305 305 305 305 305 304 303 303 302 302 302
85 90 94 94 95 97 98 99 100 101 104 108 111 113 115 116 118 123 129 134 140 146 153 161 168 177 184 191 197 204 212 218 226 232 235 236 238 244 258 271 283 291 292 289 287 287 288 289 292 295 298 302 306 309 311 313 314 313 313 313 312 312 313 313 312 311 311 310 309 309 308 307 306 305 305 304 304 304 303 303 302 302 302 302 301 301
83 86 91 92 92 93 94 95 96 97 99 101 104 106 108 109 111 115 119 121 124 128 134 139 136 133 136 139 141 144 149 152 155 160 161 146 131 117 101 58 275 273 273 276 281 287 292 297 301 304 308 312 315 316 317 317 318 317 315 314 313 312 312 312 311 310 310 309 309 308 307 306 305 304 304 303 303 303 302 302 302 301 301 301 301 301
84 84 87 90 92 92 93 94 95 96 98 100 102 104 106 108 108 110 111 111 114 117 119 121 119 118 117 116 115 114 113 113 112 113 113 112 113 119 135 198 249 268 281 291 298 303 308 313 316 319 320 321 322 321 321 320 319 317 315 314 313 312 311 311 310 310 309 308 307 306 305 304 303 302 302 303 303 303 303 302 302 302 301 301 301 301
86 87 88 91 92 93 94 95 96 98 99 100 102 103 104 105 105 105 105 106 107 109 110 111 110 109 107 106 106 106 107 109 111 113 116 116 117 121 134 304 312 318 322 323 324 325 325 327 328 327 326 325 324 322 320 319 317 315 314 312 311 311 310 309 309 307 306 305 304 304 303 302 302 302 303 303 303 303 303 302 302 302 301 301 301 301
87 88 89 91 92 93 94 95 96 96 97 98 99 100 101 101 101 102 103 104 105 105 105 105 105 104 104 105 106 106 107 107 104 102 96 86 68 45 24 9 358 350 343 338 334 333 331 330 329 326 324 323 321 319 317 315 314 312 311 310 309 309 308 307 306 305 305 304 304 304 303 303 303 303 303 303 303 302 302 302 302 302 302 302 301 301
87 87 88 89 91 92 93 94 94 95 96 97 97 98 99 99 100 100 100 100 101 100 100 99 99 99 99 99 97 95 91 86 80 73 62 52 41 30 19 8 357 347 340 336 332 330 329 326 324 322 320 318 316 315 313 312 310 309 308 307 307 307 306 306 306 305 305 305 305 304 304 303 303 303 303 303 303 302 302 302 302 302 302 302 302 303
84 86 86 86 88 90 91 92 92 93 93 93 94 94 94 93 94 93 92 92 92 91 90 90 90 88 85 84 81 77 73 69 64 58 50 40 29 19 7 355 344 337 332 329 326 325 322 320 318 317 315 314 313 312 310 309 308 307 307 306 307 307 307 307 306 306 306 306 305 305 304 304 304 304 303 303 303 303 303 303 303 303 303 303 304 304
80 82 83 83 83 84 86 87 86 86 86 86 86 86 85 85 84 84 84 84 84 83 82 81 79 75 72 70 68 65 62 57 53 48 40 29 17 2 346 336 330 325 323 320 318 317 315 314 313 312 311 310 309 308 308 307 307 307 308 308 309 309 309 308 308 308 307 307 306 305 304 304 304 303 303 303 303 304 304 304 305 305 305 305 305 305
76 77 78 79 80 80 81 81 81 82 82 82 82 82 82 81 81 80 80 80 80 79 77 76 74 72 71 70 69 67 63 56 48 39 25 9 351 336 326 321 319 316 314 312 312 311 310 309 308 308 308 308 308 308 308 308 309 310 311 311 311 311 310 309 308 308 307 306 305 305 304 304 304 304 305 305 305 306 306 306 306 306 306 306 306 306
73 74 75 76 77 77 77 78 79 80 81 82 82 82 82 81 81 81 80 79 78 77 76 75 72 71 69 69 68 65 58 48 36 20 0 342 327 321 317 315 313 311 309 307 307 306 306 306 307 308 309 310 311 311 312 312 312 312 312 311 311 309 308 308 307 307 307 307 307 307 307 307 307 307 308 308 309 309 309 309 308 308 308 307 307 307
71 72 73 74 74 74 75 76 77 78 79 81 82 83 83 82 82 82 80 80 78 76 75 75 73 69 61 50 41 30 19 9 359 346 330 318 312 310 309 308 306 305 303 303 303 305 306 308 310 312 313 313 313 313 312 312 311 311 310 310 309 309 309 309 309 309 309 309 310 310 310 310 310 311 311 312 311 311 311 310 310 309 309 309 309 309
69 70 71 72 73 73 74 75 75 75 76 78 79 81 82 82 81 80 77 75 72 68 65 60 55 48 28 3 345 336 330 328 327 322 312 306 305 304 303 302 302 303 304 306 308 311 312 313 314 314 314 313 312 311 310 310 310 310 310 310 310 310 311 311 312 312 312 312 312 312 312 313 313 313 313 313 312 312 312 311 311 311 311 311 311 311
65 66 67 68 70 72 73 74 76 77 76 75 74 73 74 76 77 77 74 70 65 59 52 36 10 346 332 324 319 315 310 309 312 309 304 301 301 301 301 303 306 308 310 312 314 314 315 315 314 313 312 312 311 311 311 311 312 312 312 312 312 312 313 313 313 313 313 313 313 313 313 313 314 314 313 313 313 312 312 312 312 312 312 312 312 312
59 60 61 63 64 65 66 68 70 73 75 74 71 66 63 61 62 65 67 65 56 35 9 329 304 300 300 299 299 299 299 301 304 304 302 301 302 304 306 309 311 312 312 313 313 314 314 314 313 313 313 313 313 313 313 314 314 314 313 314 314 315 315 315 314 314 314 313 313 313 313 313 313 313 313 313 313 313 313 313 313 312 312 313 313 314
51 51 53 55 56 56 58 58 58 61 65 66 62 54 42 29 21 20 19 26 26 359 319 306 296 292 292 292 293 294 296 300 305 307 306 306 307 308 309 310 311 311 312 312 313 314 314 315 315 314 314 314 314 313 314 315 315 315 315 316 317 317 317 316 316 315 314 314 314 314 313 313 313 313 313 313 313 313 313 313 313 313 313 314 315 316
49 45 43 42 39 39 39 36 31 30 29 21 4 349 339 330 331 328 315 315 328 331 322 316 308 300 299 301 303 305 306 306 308 310 309 308 309 310 311 312 313 313 314 315 315 316 316 316 315 314 314 314 314 314 315 316 316 316 316 317 317 318 318 317 317 316 315 315 315 314 313 313 313 313 313 314 314 314 314 314 314 314 315 316 316 317
43 40 37 33 25 20 13 0 345 335 340 339 324 317 319 318 318 319 309 304 311 320 321 319 315 311 309 309 311 313 312 310 310 312 311 311 312 313 313 314 314 315 315 316 316 316 316 315 314 313 314 314 314 315 316 316 316 316 316 316 317 318 318 318 318 317 317 316 315 314 313 313 313 314 314 314 314 314 315 315 315 316 317 317 318 318
25 22 18 13 7 3 357 345 333 327 327 325 312 304 308 313 315 317 310 302 305 312 314 313 314 314 313 313 313 314 313 311 311 312 314 314 315 316 315 315 316 316 316 316 316 315 314 314 313 313 313 313 314 315 315 315 315 315 316 317 318 318 319 318 319 319 318 317 316 315 314 314 314 314 315 315 315 316 316 317 317 318 318 319 319 318
3 359 354 350 345 343 341 338 332 325 318 315 310 303 302 306 309 312 312 309 310 312 312 312 313 314 314 313 312 312 313 312 310 311 313 314 315 315 315 315 315 315 314 314 313 313 312 312 312 312 312 312 313 314 315 315 315 316 317 318 319 319 319 319 320 320 319 318 316 315 314 314 315 315 316 316 317 317 318 318 319 319 320 319 319 318
338 334 329 325 323 322 322 321 319 316 313 312 312 308 304 302 302 305 308 309 310 310 309 309 310 311 311 311 310 309 309 308 307 307 309 311 311 311 311 311 311 310 310 309 310 310 311 311 311 311 311 312 312 313 315 315 316 317 318 319 319 319 319 320 320 320 319 318 317 315 315 315 316 316 317 318 318 319 319 320 320 321 320 320 319 318
318 314 310 306 303 304 305 306 305 303 304 306 308 306 300 296 297 300 301 301 302 302 303 304 305 307 308 308 307 306 304 303 301 301 302 304 305 305 305 306 307 307 307 307 308 310 310 311 311 311 311 311 312 313 315 316 317 318 319 320 320 320 320 321 321 320 320 318 317 316 316 316 317 318 319 320 320 321 321 321 322 321 320 320 319 319
308 306 303 300 299 299 299 299 298 297 298 299 300 296 285 280 286 292 291 292 295 296 297 300 302 303 304 304 304 303 301 300 298 298 300 301 302 303 304 304 305 305 306 307 308 310 311 311 311 310 310 311 313 314 316 316 317 318 319 320 320 320 321 321 321 320 319 318 317 317 317 318 319 320 321 321 322 322 323 323 322 321 321 320 320 319
302 300 299 299 299 299 298 298 298 299 300 300 299 294 284 278 283 288 289 291 294 294 295 297 299 302 303 303 302 301 300 300 300 301 302 302 303 304 304 304 304 305 306 307 308 310 312 312 311 311 311 313 314 315 317 317 318 319 320 320 320 321 322 322 321 320 319 318 318 318 319 321 322 322 323 323 324 324 324 323 322 321 321 321 320 319
298 294 293 293 295 297 296 295 296 299 300 300 299 296 291 289 290 292 291 292 292 292 295 298 301 303 304 303 302 301 300 300 301 302 303 303 303 304 304 304 305 306 307 307 308 310 312 312 312 312 313 314 316 316 317 317 318 319 320 320 321 322 322 322 321 319 318 318 319 320 322 323 323 324 325 325 326 325 324 323 322 322 321 320 320 320
297 294 292 290 290 291 292 293 296 299 299 297 296 295 294 293 292 291 291 292 292 293 296 298 300 301 303 303 303 302 302 301 301 302 303 304 303 303 303 304 305 306 306 306 308 310 312 312 313 313 314 315 316 317 318 318 319 320 321 321 322 323 322 321 320 319 319 320 321 322 323 324 325 326 327 327 326 325 324 323 323 322 321 321 321 321
297 295 293 292 292 291 289 290 295 299 300 300 297 294 292 292 290 289 289 290 291 293 295 297 298 299 301 302 302 303 304 304 302 301 302 302 301 301 302 303 304 304 304 305 308 310 312 312 313 314 314 316 317 317 318 320 320 321 322 323 323 323 322 320 320 320 321 322 323 324 325 326 327 328 328 327 326 325 324 323 323 323 323 322 322 322
294 293 293 293 294 293 292 294 299 302 304 305 303 297 294 293 291 291 291 291 292 293 294 296 298 298 299 299 301 304 306 305 303 301 300 299 299 299 300 301 302 302 303 305 308 310 311 311 313 314 315 316 317 318 319 321 321 322 323 323 323 322 321 320 320 321 322 323 324 326 327 328 329 329 327 326 326 325 324 323 324 324 324 324 323 324
288 289 290 291 293 295 295 298 305 309 310 310 307 302 300 299 297 296 296 296 296 296 297 299 301 301 301 301 303 306 307 305 302 299 297 296 296 297 299 300 301 302 304 306 308 309 310 311 313 314 315 316 317 319 320 321 322 323 323 323 322 321 320 321 322 323 324 325 326 328 329 330 329 328 327 327 326 325 325 325 325 325 325 325 325 325
285 286 288 290 292 295 296 299 306 311 311 310 308 306 306 305 304 304 304 303 302 302 304 306 307 306 305 306 308 310 309 306 303 299 296 296 297 299 299 300 302 303 304 306 308 309 310 312 314 315 316 316 318 320 321 322 323 324 323 322 321 321 321 323 324 325 326 327 329 330 330 330 329 329 328 327 326 326 326 327 327 326 326 326 326 326
284 286 288 290 292 293 295 298 304 309 310 307 306 306 306 306 306 307 307 306 307 308 310 310 310 309 309 311 312 313 312 309 307 304 302 301 301 301 301 302 303 304 306 307 309 310 312 314 315 315 316 318 320 321 322 323 324 323 322 321 321 322 323 324 325 327 328 329 330 331 331 330 329 329 328 328 328 328 328 328 328 327 328 327 327 328
284 285 287 289 291 293 295 299 304 308 308 306 304 305 305 305 306 307 306 306 307 310 311 311 310 310 310 312 313 313 313 312 311 310 308 305 304 304 304 305 306 306 308 309 311 312 313 314 314 315 317 319 321 322 323 323 323 322 321 322 323 324 325 326 327 329 330 331 331 331 331 331 330 330 329 329 330 330 330 330 329 329 329 329 329 330
283 285 287 290 291 293 296 300 303 307 308 306 305 306 307 306 307 307 307 307 309 310 310 309 309 309 309 310 310 311 311 312 312 311 310 308 307 307 307 307 308 309 310 311 311 312 313 314 315 317 319 320 322 323 323 322 321 321 322 324 325 326 327 328 329 330 331 331 331 331 331 331 331 330 330 331 332 332 331 331 330 330 330 330 331 332
280 283 286 289 291 292 295 298 302 305 306 305 305 306 306 306 307 308 307 308 309 308 307 307 307 307 308 309 309 309 310 311 311 311 311 310 309 309 309 309 310 310 311 311 312 312 313 315 317 319 320 322 323 323 322 321 322 323 324 325 326 327 328 329 330 331 331 331 331 331 332 331 332 332 333 333 333 333 332 333 333 332 331 331 333 335
Height
5632 5637 5643 5649 5657 5665 5673 5680 5688 5694 5700 5707 5714 5719 5723 5729 5733 5738 5742 5747 5751 5754 5758 5762 5765 5768 5770 5772 5775 5777 5779 5781 5783 5784 5786 5787 5788 5790 5791 5791 5792 5793 5794 5794 5795 5795 5796 5796 5797 5797 5797 5797 5797 5796 5796 5795 5795 5795 5794 5794 5794 5793 5792 5791 5790 5788 5787 5785 5784 5782 5781 5779 5777 5776 5774 5772 5770 5768 5766 5764 5762 5760 5758 5756 5754 5752
5630 5635 5641 5647 5655 5664 5671 5679 5685 5691 5698 5706 5712 5716 5721 5727 5732 5737 5741 5745 5749 5753 5756 5760 5763 5766 5768 5771 5773 5775 5777 5779 5781 5782 5784 5785 5787 5788 5789 5789 5790 5791 5791 5792 5792 5793 5794 5794 5794 5794 5794 5794 5794 5793 5793 5793 5793 5792 5792 5791 5791 5790 5788 5787 5786 5784 5783 5781 5779 5778 5776 5774 5772 5770 5768 5766 5764 5762 5760 5758 5756 5753 5751 5749 5747 5745
5629 5634 5640 5647 5654 5661 5668 5676 5683 5690 5698 5704 5709 5714 5719 5725 5730 5735 5739 5744 5748 5751 5755 5758 5761 5764 5766 5769 5771 5773 5775 5777 5779 5781 5782 5784 5785 5786 5787 5787 5788 5788 5789 5789 5789 5790 5791 5791 5791 5791 5791 5791 5791 5791 5790 5790 5790 5789 5788 5787 5787 5786 5784 5783 5782 5780 5778 5776 5775 5773 5771 5769 5767 5765 5763 5761 5759 5757 5754 5752 5750 5748 5745 5743 5740 5738
5629 5633 5639 5646 5653 5659 5665 5673 5681 5689 5696 5702 5707 5712 5718 5723 5728 5733 5737 5742 5746 5749 5753 5756 5759 5762 5765 5767 5769 5771 5773 5775 5777 5779 5781 5782 5783 5784 5784 5785 5785 5786 5786 5787 5787 5788 5788 5788 5788 5788 5789 5789 5789 5788 5788 5787 5786 5785 5784 5783 5782 5781 5780 5779 5777 5775 5774 5772 5770 5768 5766 5764 5762 5760 5758 5756 5754 5751 5749 5746 5744 5741 5739 5736 5734 5731
5630 5634 5640 5645 5653 5660 5665 5672 5680 5687 5693 5699 5705 5711 5717 5723 5728 5732 5737 5740 5744 5747 5750 5754 5757 5760 5763 5765 5767 5769 5772 5774 5776 5777 5779 5780 5781 5781 5782 5783 5783 5784 5784 5785 5785 5785 5785 5785 5786 5786 5786 5786 5786 5785 5784 5783 5783 5782 5781 5780 5779 5777 5776 5774 5773 5771 5769 5767 5766 5764 5762 5760 5757 5755 5753 5751 5748 5745 5743 5740 5738 5735 5732 5730 5727 5725
5632 5637 5642 5647 5654 5661 5666 5673 5680 5687 5693 5698 5703 5710 5716 5722 5726 5731 5735 5739 5742 5745 5748 5752 5755 5757 5761 5763 5765 5768 5770 5772 5773 5775 5776 5777 5778 5779 5780 5781 5781 5781 5782 5782 5782 5783 5783 5783 5783 5783 5783 5782 5782 5781 5780 5779 5779 5778 5777 5776 5775 5773 5772 5770 5768 5767 5765 5763 5761 5759 5757 5755 5753 5750 5748 5745 5743 5740 5737 5734 5732 5729 5726 5724 5721 5719
5635 5640 5646 5651 5657 5663 5668 5675 5682 5687 5693 5699 5704 5709 5714 5720 5725 5729 5734 5737 5741 5744 5747 5751 5753 5756 5759 5761 5764 5766 5768 5770 5771 5773 5774 5775 5776 5777 5778 5778 5778 5779 5780 5780 5781 5781 5781 5781 5781 5780 5780 5779 5778 5777 5777 5776 5775 5774 5773 5772 5771 5769 5768 5766 5764 5762 5761 5759 5757 5755 5752 5750 5748 5745 5743 5740 5737 5735 5732 5729 5726 5724 5721 5718 5716 5713
5639 5644 5649 5654 5660 5665 5670 5677 5684 5689 5694 5699 5704 5709 5714 5718 5723 5728 5732 5736 5740 5743 5746 5749 5752 5754 5757 5759 5762 5764 5766 5768 5769 5771 5772 5773 5774 5774 5774 5775 5776 5777 5778 5778 5778 5779 5779 5779 5778 5777 5777 5776 5775 5774 5773 5773 5772 5771 5770 5768 5767 5765 5764 5762 5760 5758 5756 5754 5752 5750 5747 5745 5742 5740 5737 5735 5732 5730 5727 5724 5722 5719 5716 5714 5711 5709
5644 5649 5653 5659 5664 5669 5673 5679 5687 5692 5695 5699 5704 5710 5714 5718 5722 5726 5730 5734 5738 5741 5743 5747 5750 5752 5755 5758 5760 5762 5764 5766 5768 5769 5770 5770 5771 5771 5772 5773 5774 5775 5775 5776 5776 5776 5776 5776 5775 5774 5773 5773 5772 5771 5770 5769 5768 5767 5766 5765 5763 5762 5760 5758 5756 5754 5752 5750 5748 5745 5743 5740 5738 5735 5733 5730 5728 5726 5723 5720 5718 5715 5712 5709 5706 5704
5649 5654 5657 5663 5668 5672 5676 5682 5689 5693 5697 5701 5705 5710 5714 5718 5722 5725 5728 5732 5736 5739 5742 5745 5749 5751 5753 5756 5758 5760 5762 5764 5765 5766 5767 5768 5769 5770 5771 5772 5772 5773 5773 5774 5774 5773 5773 5772 5772 5771 5770 5770 5769 5768 5767 5766 5765 5764 5762 5761 5759 5758 5756 5754 5752 5750 5748 5745 5743 5741 5739 5736 5734 5732 5729 5727 5724 5722 5719 5717 5714 5711 5708 5705 5702 5699
5655 5659 5662 5668 5671 5675 5679 5683 5688 5692 5697 5702 5706 5710 5715 5718 5721 5724 5728 5732 5735 5738 5741 5744 5747 5749 5751 5753 5755 5757 5759 5760 5762 5764 5765 5766 5767 5768 5769 5770 5770 5771 5771 5771 5770 5770 5770 5769 5768 5768 5767 5766 5766 5765 5764 5763 5762 5760 5759 5757 5755 5754 5752 5750 5748 5746 5744 5742 5740 5737 5735 5733 5730 5728 5726 5723 5720 5717 5715 5712 5709 5706 5703 5700 5697 5693
5660 5663 5667 5672 5674 5677 5681 5684 5688 5693 5698 5704 5708 5712 5715 5718 5721 5725 5728 5731 5734 5737 5740 5743 5745 5747 5749 5751 5753 5755 5757 5759 5760 5762 5763 5764 5765 5766 5767 5768 5768 5768 5768 5768 5767 5767 5767 5766 5765 5765 5764 5763 5763 5762 5761 5759 5758 5756 5755 5753 5752 5750 5748 5746 5745 5743 5741 5738 5736 5734 5732 5729 5727 5725 5722 5719 5716 5713 5711 5708 5705 5702 5698 5695 5692 5689
5664 5667 5671 5675 5678 5681 5684 5687 5691 5695 5699 5704 5709 5713 5716 5719 5722 5725 5728 5731 5734 5737 5740 5742 5744 5747 5749 5751 5753 5754 5756 5758 5759 5760 5761 5762 5763 5764 5765 5765 5765 5765 5765 5765 5765 5764 5764 5764 5763 5762 5761 5760 5759 5758 5757 5756 5754 5753 5751 5750 5748 5747 5746 5744 5742 5740 5738 5735 5733 5731 5729 5726 5724 5721 5718 5715 5713 5710 5707 5704 5701 5697 5694 5691 5688 5684
5667 5671 5675 5678 5681 5685 5688 5692 5695 5697 5700 5705 5711 5715 5719 5723 5725 5727 5730 5732 5735 5737 5740 5742 5744 5746 5748 5750 5752 5753 5755 5756 5757 5758 5759 5760 5761 5762 5762 5762 5763 5763 5763 5763 5762 5762 5761 5761 5760 5759 5758 5757 5756 5755 5754 5753 5751 5750 5749 5747 5746 5744 5743 5741 5739 5737 5735 5732 5730 5728 5726 5723 5720 5718 5715 5712 5709 5706 5703 5700 5696 5692 5689 5685 5682 5679
5672 5675 5680 5682 5685 5688 5692 5698 5700 5702 5705 5709 5714 5718 5721 5725 5727 5729 5732 5734 5736 5738 5740 5742 5744 5746 5748 5749 5751 5752 5753 5754 5755 5756 5757 5758 5759 5760 5760 5760 5760 5760 5760 5760 5759 5759 5758 5758 5757 5756 5755 5755 5753 5752 5751 5750 5749 5748 5746 5745 5743 5741 5739 5738 5736 5734 5732 5730 5727 5725 5722 5720 5717 5714 5711 5708 5705 5701 5698 5695 5691 5687 5683 5680 5677 5673
5678 5680 5684 5688 5690 5692 5696 5702 5705 5707 5710 5714 5717 5720 5723 5726 5728 5730 5733 5735 5736 5739 5740 5742 5743 5745 5747 5748 5749 5751 5752 5753 5754 5755 5756 5757 5757 5758 5758 5758 5758 5758 5758 5757 5757 5756 5756 5755 5754 5754 5753 5752 5751 5750 5749 5748 5747 5746 5744 5742 5741 5739 5737 5735 5734 5732 5729 5727 5725 5722 5719 5716 5712 5709 5706 5703 5700 5697 5694 5690 5686 5682 5678 5675 5671 5667
5685 5685 5689 5693 5694 5698 5702 5706 5709 5711 5713 5717 5720 5722 5724 5727 5729 5731 5733 5735 5737 5739 5740 5742 5743 5745 5746 5747 5748 5750 5751 5752 5753 5753 5754 5755 5755 5755 5755 5756 5756 5756 5755 5755 5755 5754 5754 5753 5753 5752 5752 5751 5750 5749 5748 5746 5745 5744 5742 5740 5739 5737 5734 5732 5730 5728 5726 5723 5721 5718 5715 5711 5708 5705 5702 5699 5696 5692 5689 5685 5681 5677 5673 5669 5665 5661
5694 5691 5694 5698 5700 5704 5707 5709 5712 5715 5717 5720 5722 5724 5726 5728 5731 5733 5734 5736 5737 5739 5740 5742 5743 5744 5745 5746 5747 5748 5749 5750 5751 5751 5752 5753 5753 5753 5754 5754 5754 5754 5754 5753 5753 5753 5753 5752 5752 5751 5750 5749 5748 5747 5746 5744 5743 5742 5740 5738 5736 5734 5732 5729 5727 5725 5722 5720 5717 5714 5711 5707 5703 5700 5697 5694 5691 5687 5684 5680 5675 5671 5667 5662 5658 5654
5700 5698 5698 5702 5705 5708 5711 5713 5715 5717 5720 5722 5724 5726 5728 5730 5732 5733 5735 5736 5738 5739 5740 5741 5742 5743 5744 5745 5746 5747 5748 5749 5750 5750 5751 5751 5752 5752 5752 5753 5753 5753 5753 5753 5753 5753 5752 5752 5751 5750 5749 5748 5747 5745 5744 5742 5741 5739 5737 5735 5733 5731 5729 5726 5723 5721 5719 5716 5713 5710 5707 5703 5699 5696 5692 5689 5685 5681 5678 5674 5669 5664 5660 5655 5651 5646
5706 5704 5703 5706 5709 5711 5713 5715 5717 5719 5722 5723 5725 5727 5729 5731 5732 5733 5735 5736 5737 5739 5740 5741 5742 5742 5744 5745 5746 5746 5747 5748 5749 5750 5751 5751 5751 5752 5752 5752 5752 5753 5753 5753 5752 5752 5751 5751 5750 5749 5748 5747 5745 5744 5742 5741 5739 5737 5735 5733 5731 5728 5726 5723 5721 5718 5715 5712 5709 5706 5703 5699 5695 5691 5687 5683 5679 5675 5671 5667 5662 5658 5653 5648 5643 5638
5710 5710 5709 5710 5713 5715 5716 5718 5720 5722 5724 5725 5727 5729 5730 5732 5733 5734 5736 5737 5738 5740 5741 5742 5742 5743 5744 5745 5746 5747 5748 5749 5750 5750 5751 5751 5752 5752 5752 5752 5753 5753 5753 5752 5752 5751 5751 5750 5749 5748 5747 5745 5744 5742 5740 5739 5736 5734 5732 5730 5728 5726 5723 5721 5718 5715 5712 5709 5706 5702 5698 5694 5690 5686 5681 5678 5673 5669 5665 5660 5655 5650 5645 5640 5635 5629
5716 5717 5717 5717 5718 5720 5722 5723 5725 5726 5728 5729 5730 5732 5733 5735 5736 5737 5738 5739 5741 5742 5743 5744 5745 5745 5746 5747 5748 5749 5749 5750 5751 5751 5752 5752 5752 5753 5753 5753 5753 5753 5753 5752 5751 5751 5750 5749 5748 5746 5745 5743 5742 5740 5738 5737 5735 5732 5730 5728 5726 5723 5721 5718 5715 5712 5708 5705 5702 5698 5693 5689 5685 5680 5676 5672 5667 5662 5657 5652 5647 5642 5637 5632 5626 5620
5724 5724 5724 5724 5724 5726 5727 5729 5730 5731 5733 5734 5735 5736 5737 5738 5740 5741 5741 5742 5743 5744 5745 5747 5747 5748 5748 5749 5750 5750 5751 5751 5752 5752 5753 5753 5753 5754 5754 5754 5753 5753 5752 5751 5751 5750 5749 5748 5746 5745 5744 5742 5741 5739 5737 5735 5733 5730 5728 5725 5723 5720 5718 5714 5711 5708 5704 5700 5696 5692 5688 5683 5678 5674 5670 5665 5660 5655 5650 5644 5639 5634 5628 5623 5617 5611
5730 5730 5730 5730 5730 5731 5733 5734 5735 5736 5737 5738 5739 5740 5741 5742 5743 5744 5745 5745 5746 5747 5748 5749 5750 5750 5750 5751 5751 5752 5752 5753 5753 5754 5754 5754 5754 5754 5754 5753 5753 5752 5751 5751 5750 5749 5748 5746 5745 5744 5742 5741 5739 5737 5735 5733 5730 5728 5725 5722 5719 5716 5713 5710 5706 5702 5698 5694 5690 5686 5681 5676 5672 5668 5663 5658 5653 5647 5642 5637 5631 5625 5620 5614 5608 5601
5734 5734 5736 5736 5736 5736 5737 5738 5739 5740 5741 5742 5742 5743 5744 5745 5746 5747 5748 5748 5749 5750 5750 5751 5752 5752 5752 5752 5753 5753 5754 5754 5754 5755 5755 5754 5754 5754 5753 5753 5752 5751 5751 5750 5749 5748 5746 5745 5744 5742 5741 5739 5737 5734 5732 5729 5727 5724 5721 5718 5715 5712 5709 5705 5701 5697 5692 5688 5684 5680 5675 5670 5665 5661 5656 5650 5645 5639 5634 5628 5622 5616 5610 5604 5597 5591
5739 5739 5740 5741 5741 5741 5741 5742 5743 5744 5744 5745 5746 5747 5747 5748 5749 5749 5750 5751 5751 5752 5752 5753 5753 5753 5754 5754 5754 5755 5755 5755 5755 5755 5755 5754 5754 5753 5753 5752 5751 5750 5749 5748 5747 5746 5744 5743 5741 5740 5738 5736 5734 5731 5729 5726 5723 5720 5717 5714 5710 5707 5703 5699 5695 5691 5687 5682 5678 5673 5668 5663 5658 5653 5648 5643 5637 5631 5625 5619 5613 5607 5600 5594 5587 5580
5744 5744 5744 5745 5745 5745 5745 5746 5747 5747 5748 5748 5749 5750 5750 5751 5751 5752 5752 5753 5753 5753 5754 5754 5755 5755 5755 5755 5755 5755 5755 5755 5755 5755 5754 5754 5753 5752 5752 5751 5750 5749 5748 5746 5745 5744 5742 5740 5738 5737 5735 5733 5730 5728 5725 5722 5719 5716 5713 5709 5706 5702 5698 5694 5690 5685 5681 5676 5671 5666 5661 5656 5651 5646 5640 5635 5629 5623 5617 5611 5604 5598 5591 5584 5577 5570
5748 5748 5748 5748 5749 5749 5749 5750 5750 5751 5751 5751 5752 5752 5753 5753 5753 5754 5754 5754 5755 5755 5755 5755 5755 5755 5755 5755 5755 5755 5755 5755 5754 5754 5753 5752 5752 5751 5750 5749 5748 5747 5746 5744 5743 5741 5739 5737 5735 5734 5731 5729 5727 5724 5721 5719 5715 5712 5709 5705 5701 5697 5692 5688 5684 5679 5674 5669 5664 5659 5654 5649 5643 5638 5632 5626 5620 5614 5608 5602 5595 5588 5581 5574 5567 5560
5752 5752 5752 5752 5753 5753 5753 5753 5753 5754 5754 5754 5754 5754 5755 5755 5755 5755 5755 5756 5756 5756 5756 5756 5756 5755 5755 5755 5755 5754 5754 5754 5753 5753 5752 5751 5750 5749 5748 5747 5746 5745 5743 5742 5740 5738 5737 5735 5733 5730 5728 5726 5723 5720 5717 5714 5711 5708 5704 5700 5695 5691 5686 5682 5677 5673 5668 5662 5657 5652 5646 5641 5635 5630 5624 5618 5612 5606 5599 5592 5586 5579 5572 5564 5557 5550
5756 5756 5756 5756 5756 5756 5756 5756 5756 5756 5756 5756 5756 5756 5756 5757 5756 5757 5757 5757 5757 5756 5756 5756 5756 5755 5755 5754 5754 5753 5753 5753 5752 5752 5751 5749 5748 5747 5746 5745 5744 5742 5741 5739 5737 5735 5733 5732 5729 5727 5725 5722 5719 5716 5713 5710 5707 5703 5698 5694 5689 5685 5680 5676 5671 5666 5661 5655 5650 5644 5639 5634 5628 5622 5616 5610 5603 5597 5590 5583 5577 5569 5562 5555 5547 5540
5759 5759 5758 5758 5758 5758 5758 5758 5758 5758 5758 5758 5758 5758 5758 5758 5758 5758 5758 5757 5757 5757 5756 5756 5755 5755 5754 5754 5753 5753 5752 5752 5751 5751 5749 5748 5747 5746 5744 5743 5742 5740 5738 5737 5735 5733 5731 5729 5726 5724 5721 5718 5715 5712 5708 5705 5701 5697 5693 5688 5683 5679 5674 5669 5664 5659 5654 5648 5643 5638 5632 5627 5621 5615 5608 5602 5595 5588 5581 5575 5568 5560 5553 5546 5538 5531
5761 5761 5761 5761 5760 5760 5760 5760 5760 5760 5759 5759 5759 5759 5759 5759 5758 5758 5758 5758 5757 5757 5756 5756 5755 5755 5754 5753 5753 5752 5751 5750 5750 5750 5748 5747 5746 5744 5743 5741 5740 5738 5736 5734 5733 5730 5728 5726 5723 5720 5717 5714 5710 5706 5703 5700 5696 5691 5687 5682 5677 5672 5667 5663 5658 5652 5647 5642 5636 5631 5625 5620 5614 5607 5601 5594 5587 5580 5573 5566 5559 5551 5544 5537 5529 5521
5762 5762 5762 5762 5762 5762 5761 5761 5761 5761 5761 5760 5760 5760 5759 5759 5759 5758 5758 5758 5757 5757 5756 5756 5755 5754 5753 5753 5752 5751 5750 5749 5748 5748 5746 5745 5743 5742 5741 5739 5737 5736 5734 5732 5730 5728 5725 5722 5719 5715 5712 5708 5705 5701 5698 5694 5690 5685 5680 5676 5671 5667 5662 5657 5652 5646 5641 5635 5630 5624 5618 5612 5606 5599 5592 5585 5578 5571 5564 5557 5549 5542 5534 5527 5520 5512
5764 5763 5763 5763 5763 5762 5762 5762 5762 5761 5761 5761 5760 5760 5760 5759 5759 5758 5758 5757 5757 5756 5756 5755 5755 5754 5753 5752 5750 5749 5748 5747 5746 5746 5744 5743 5741 5740 5738 5737 5735 5733 5731 5729 5727 5724 5721 5718 5714 5710 5707 5703 5700 5696 5693 5689 5685 5680 5675 5670 5666 5661 5656 5651 5645 5639 5634 5628 5622 5617 5610 5604 5598 5591 5584 5577 5569 5562 5555 5547 5540 5532 5525 5518 5510 5502
5764 5764 5764 5763 5763 5763 5762 5762 5762 5761 5761 5760 5760 5759 5759 5759 5758 5758 5757 5756 5756 5755 5755 5754 5754 5753 5752 5751 5749 5748 5746 5744 5743 5743 5742 5740 5739 5737 5735 5733 5731 5729 5727 5725 5722 5720 5716 5713 5709 5705 5701 5697 5694 5691 5687 5684 5679 5674 5669 5665 5660 5655 5649 5644 5638 5632 5626 5621 5615 5609 5602 5596 5589 5582 5575 5568 5560 5553 5545 5538 5530 5523 5516 5508 5501 5492
5763 5763 5763 5763 5763 5762 5762 5762 5761 5761 5760 5760 5760 5759 5758 5758 5757 5757 5756 5756 5755 5754 5754 5753 5753 5752 5751 5749 5748 5747 5745 5742 5740 5739 5738 5737 5735 5734 5732 5729 5727 5725 5723 5720 5718 5715 5712 5708 5704 5700 5696 5692 5689 5685 5682 5678 5674 5669 5663 5659 5653 5648 5642 5636 5630 5625 5619 5613 5607 5600 5594 5588 5581 5574 5566 5558 5551 5543 5536 5528 5520 5513 5506 5499 5492 5483
5763 5763 5762 5762 5761 5761 5761 5760 5760 5760 5759 5759 5759 5758 5758 5757 5756 5755 5755 5754 5753 5753 5752 5751 5750 5750 5749 5747 5746 5745 5743 5740 5736 5734 5734 5733 5731 5729 5727 5725 5723 5721 5718 5716 5714 5711 5707 5703 5699 5695 5691 5687 5684 5680 5677 5672 5667 5662 5657 5652 5646 5640 5635 5629 5623 5617 5611 5605 5599 5592 5586 5579 5572 5565 5557 5549 5542 5534 5526 5519 5511 5504 5497 5490 5483 5474
5762 5762 5761 5761 5760 5760 5759 5759 5758 5758 5758 5758 5757 5757 5756 5756 5755 5754 5753 5752 5751 5750 5750 5749 5748 5747 5746 5745 5744 5742 5741 5739 5735 5732 5731 5729 5727 5726 5724 5722 5720 5717 5715 5712 5709 5706 5703 5698 5694 5690 5685 5682 5678 5674 5670 5666 5661 5655 5650 5645 5639 5633 5627 5621 5615 5609 5603 5597 5591 5584 5577 5571 5563 5555 5548 5540 5532 5525 5517 5510 5502 5495 5487 5479 5472 5465
5761 5761 5760 5760 5759 5758 5758 5757 5757 5757 5756 5756 5756 5755 5755 5754 5753 5752 5751 5750 5749 5748 5747 5746 5745 5744 5743 5742 5741 5739 5738 5737 5735 5731 5729 5727 5725 5723 5721 5719 5717 5713 5711 5707 5704 5702 5698 5693 5689 5684 5679 5676 5672 5668 5663 5658 5653 5648 5642 5637 5631 5625 5619 5613 5607 5601 5595 5589 5583 5576 5569 5562 5554 5546 5538 5531 5523 5515 5508 5500 5493 5485 5477 5469 5462 5455
5759 5759 5758 5758 5757 5757 5756 5755 5755 5755 5755 5755 5754 5754 5753 5752 5751 5750 5749 5748 5747 5746 5745 5744 5743 5742 5741 5739 5738 5736 5734 5733 5732 5730 5727 5725 5723 5720 5718 5715 5712 5709 5706 5702 5699 5696 5692 5688 5683 5678 5673 5669 5665 5661 5656 5651 5645 5640 5635 5629 5624 5618 5612 5606 5599 5593 5587 5581 5575 5568 5560 5553 5545 5537 5529 5522 5514 5506 5498 5490 5483 5475 5468 5461 5454 5446
5757 5756 5756 5755 5754 5754 5754 5753 5753 5752 5752 5752 5752 5751 5751 5750 5749 5748 5747 5746 5745 5744 5742 5741 5740 5739 5738 5736 5735 5733 5731 5728 5727 5726 5724 5722 5719 5716 5713 5710 5707 5704 5700 5697 5694 5691 5687 5682 5677 5672 5667 5663 5659 5654 5649 5644 5638 5633 5628 5622 5616 5610 5604 5598 5592 5586 5580 5573 5566 5559 5551 5543 5536 5528 5520 5512 5505 5497 5489 5480 5473 5466 5459 5452 5446 5438
5755 5754 5754 5753 5752 5751 5751 5751 5751 5751 5750 5750 5749 5748 5748 5747 5746 5745 5744 5743 5742 5741 5740 5739 5737 5736 5735 5733 5732 5730 5728 5726 5724 5722 5720 5717 5714 5711 5708 5705 5702 5698 5694 5691 5688 5685 5681 5676 5670 5665 5661 5656 5652 5648 5643 5637 5631 5626 5620 5615 5609 5603 5597 5591 5585 5579 5573 5566 5558 5551 5543 5535 5527 5520 5512 5504 5496 5488 5480 5472 5464 5457 5450 5443 5436 5429
5752 5751 5750 5750 5750 5749 5748 5748 5749 5750 5749 5748 5747 5746 5745 5744 5743 5742 5741 5739 5738 5737 5736 5735 5733 5731 5730 5729 5728 5726 5724 5722 5720 5718 5716 5713 5709 5706 5703 5699 5696 5693 5689 5686 5682 5679 5675 5669 5664 5659 5654 5650 5646 5641 5636 5630 5624 5619 5613 5607 5602 5596 5590 5584 5578 5572 5565 5558 5551 5543 5535 5527 5519 5512 5504 5496 5488 5480 5472 5465 5458 5450 5441 5434 5427 5419
5748 5747 5746 5746 5746 5747 5746 5746 5747 5747 5747 5746 5745 5743 5742 5742 5740 5739 5738 5736 5735 5733 5732 5731 5729 5727 5726 5724 5723 5722 5720 5718 5716 5713 5711 5708 5704 5700 5697 5694 5691 5687 5684 5680 5677 5673 5668 5663 5658 5653 5648 5643 5639 5634 5629 5624 5618 5612 5606 5601 5595 5589 5583 5577 5571 5565 5558 5551 5543 5536 5528 5520 5512 5504 5496 5488 5480 5473 5465 5458 5451 5443 5434 5425 5417 5409
5744 5742 5741 5741 5741 5742 5742 5743 5745 5745 5744 5743 5742 5740 5738 5738 5737 5736 5735 5733 5732 5730 5728 5727 5726 5724 5722 5720 5719 5718 5716 5713 5711 5709 5706 5703 5698 5695 5692 5688 5685 5682 5678 5674 5670 5666 5661 5657 5652 5647 5641 5636 5632 5627 5622 5617 5612 5606 5600 5595 5589 5583 5577 5571 5564 5558 5551 5543 5536 5529 5521 5514 5505 5497 5489 5481 5474 5466 5459 5451 5444 5436 5427 5417 5407 5398
5740 5739 5738 5737 5738 5738 5738 5739 5741 5741 5740 5739 5738 5736 5735 5733 5733 5732 5731 5730 5729 5727 5725 5724 5723 5720 5718 5715 5714 5713 5712 5708 5706 5704 5700 5697 5693 5689 5686 5683 5679 5675 5672 5668 5664 5660 5655 5650 5646 5641 5634 5629 5624 5620 5616 5611 5606 5600 5594 5589 5583 5577 5571 5565 5558 5551 5544 5537 5529 5522 5514 5507 5500 5492 5483 5476 5468 5459 5451 5443 5436 5428 5419 5408 5398 5389
5736 5735 5734 5734 5735 5735 5735 5736 5737 5737 5736 5734 5733 5731 5730 5730 5728 5727 5727 5726 5724 5723 5721 5720 5718 5715 5713 5710 5709 5708 5706 5703 5700 5698 5694 5690 5687 5684 5680 5677 5673 5669 5665 5662 5658 5654 5649 5644 5639 5634 5628 5623 5618 5614 5609 5604 5599 5594 5588 5583 5577 5571 5564 5558 5551 5544 5537 5530 5522 5516 5508 5501 5494 5487 5479 5471 5463 5454 5445 5435 5426 5419 5410 5399 5388 5379
5732 5731 5730 5731 5732 5732 5732 5734 5735 5735 5733 5730 5729 5728 5726 5725 5724 5723 5722 5720 5719 5718 5716 5714 5712 5709 5707 5705 5703 5702 5699 5696 5693 5691 5688 5684 5681 5678 5674 5671 5667 5663 5659 5656 5651 5647 5642 5637 5632 5627 5622 5617 5612 5608 5603 5598 5593 5587 5582 5576 5570 5564 5557 5551 5544 5537 5530 5523 5516 5509 5503 5496 5489 5482 5474 5466 5457 5449 5440 5429 5418 5409 5401 5391 5378 5366
5729 5728 5727 5728 5728 5727 5729 5731 5733 5733 5731 5726 5724 5724 5723 5722 5721 5719 5717 5715 5714 5713 5711 5709 5706 5703 5701 5699 5697 5695 5692 5689 5686 5684 5682 5678 5675 5672 5668 5665 5661 5657 5653 5649 5644 5640 5635 5630 5625 5621 5616 5611 5607 5602 5597 5592 5586 5581 5575 5570 5563 5557 5550 5544 5537 5530 5523 5517 5510 5504 5497 5491 5484 5477 5469 5461 5453 5443 5433 5423 5411 5400 5391 5383 5371 5358
5725 5723 5722 5723 5723 5723 5725 5727 5728 5730 5728 5724 5720 5719 5719 5718 5717 5715 5713 5711 5710 5708 5706 5704 5701 5698 5696 5694 5692 5689 5687 5684 5681 5678 5675 5672 5669 5666 5662 5659 5655 5650 5646 5642 5638 5633 5628 5624 5619 5615 5610 5606 5602 5597 5591 5586 5580 5575 5569 5563 5556 5550 5544 5537 5531 5524 5518 5511 5504 5498 5492 5486 5479 5472 5464 5457 5449 5439 5429 5418 5406 5393 5381 5372 5364 5354
5722 5720 5718 5718 5717 5718 5719 5722 5724 5725 5724 5721 5717 5714 5713 5712 5712 5711 5708 5707 5706 5704 5701 5699 5697 5694 5692 5689 5686 5684 5681 5678 5675 5673 5670 5666 5663 5660 5656 5653 5649 5644 5640 5636 5631 5626 5622 5617 5613 5609 5605 5600 5596 5591 5585 5580 5574 5569 5563 5556 5550 5544 5538 5532 5525 5519 5513 5506 5499 5493 5487 5481 5474 5467 5460 5452 5443 5434 5425 5414 5403 5390 5375 5363 5355 5348